Location: Roswell
(33.3943°N, 104.5230°W)
Time: 13:04:31
(UTC+00:00)

Vanguard 2 Rocket - Pass Details

Date: 22 November 2024
Orbit: 554 x 3296 km, 32.9° (Epoch: 30 November)

Event Time Altitude Azimuth Distance (km) Brightness Sun altitude
Exits shadow 10:40:06 41° 185° (S) 2,104 8.5 -36.5°
Maximum altitude 10:42:38 49° 147° (SSE) 2,117 8.7 -36.0°
Drops below altitude 10° 10:55:54 10° 79° (ENE) 5,269 11.5 -33.2°
Sets 11:01:03 0° 75° (ENE) 6,657 12.3 -32.1°
